Wind_Speed
15 16 16 15 13 11 10 8 7 7 9 9 8 7 7 8 9 11 14 17 18 21 18 22 16 19 25 28 22 5 19 12 21 25 23 21 16 14 15 19 19 17 11 8 7
16 18 19 18 17 15 14 12 10 9 7 8 7 7 6 7 8 6 13 18 21 22 22 13 11 24 27 23 8 14 19 16 19 24 24 20 17 17 18 20 20 11 10 10 9
15 19 20 21 20 18 17 15 13 12 10 8 7 7 7 6 7 7 9 18 18 22 22 16 20 20 21 18 3 20 17 15 13 17 14 20 27 29 20 16 19 23 18 17 15
15 17 21 23 23 21 20 19 17 16 13 11 9 8 7 7 5 7 7 16 17 21 21 17 22 22 19 20 12 15 17 11 15 16 23 24 25 26 28 22 18 21 20 18 23
17 17 18 24 25 24 23 22 21 19 17 15 13 11 9 8 7 9 6 12 17 18 18 10 20 22 4 6 16 13 10 9 14 15 18 20 20 21 22 18 20 19 18 17 19
20 19 19 20 26 26 26 25 24 22 21 19 17 15 12 8 8 8 9 9 14 14 13 10 24 20 2 3 16 8 10 8 11 11 14 13 15 20 19 17 19 22 20 18 20
25 23 21 20 21 27 29 28 27 25 23 23 21 19 16 14 13 11 9 11 11 9 12 17 11 28 17 8 9 9 8 8 4 10 14 6 10 19 19 16 18 17 20 23 25
29 28 26 24 22 22 27 30 29 28 26 25 25 22 21 15 16 14 13 11 11 11 9 16 9 18 22 11 14 14 17 5 10 5 6 14 13 18 19 19 15 16 20 24 28
26 29 30 29 26 25 24 26 30 31 30 29 27 25 24 20 17 19 15 13 13 14 14 14 10 17 16 21 12 17 20 3 6 15 12 7 9 14 12 13 14 14 17 25 25
18 21 28 31 31 29 27 26 26 31 33 32 30 27 26 26 29 23 20 18 15 15 14 15 19 17 13 11 11 13 14 17 14 12 16 7 10 17 13 8 8 13 17 19 23
19 19 18 23 30 33 32 30 29 29 28 32 33 28 27 28 25 22 24 23 21 18 14 16 17 18 10 6 8 15 16 14 13 3 5 14 21 19 14 10 11 11 13 15 17
20 19 21 21 19 27 34 35 31 32 28 29 31 30 32 27 22 27 28 26 24 20 20 23 14 15 16 8 11 21 12 8 14 6 8 14 23 30 22 6 8 9 9 9 14
22 21 21 21 22 20 22 32 36 35 31 29 28 27 32 28 25 30 31 28 28 26 25 24 15 19 15 11 8 20 16 8 21 17 8 21 22 26 23 18 20 5 8 13 16
20 22 22 22 21 21 19 19 29 36 35 27 29 26 30 31 29 27 28 30 31 30 28 28 22 23 17 11 12 14 9 7 17 21 19 9 27 30 31 24 27 9 8 9 13
15 16 20 22 22 21 20 19 17 25 31 35 34 31 28 31 22 28 27 29 31 30 32 28 25 26 22 16 12 12 17 20 20 16 18 14 18 28 35 36 33 15 11 5 10
15 15 16 17 20 21 20 19 18 16 18 26 30 28 30 29 25 28 32 30 29 31 34 32 29 26 27 24 23 21 21 24 23 16 25 19 19 23 28 32 17 6 16 11 2
13 14 16 17 18 18 20 19 18 13 12 8 17 27 28 27 25 31 33 31 33 33 33 33 33 31 32 30 27 25 23 30 32 17 19 23 28 28 31 37 21 14 12 18 1
13 12 12 14 17 19 20 19 17 10 12 10 9 15 28 28 23 26 31 31 32 32 31 33 34 30 29 27 22 24 20 31 24 15 14 25 29 33 34 30 32 16 9 18 7
15 14 13 13 13 15 18 19 13 28 29 20 20 17 20 12 20 26 27 32 31 30 34 33 32 24 17 26 26 23 32 25 19 19 21 26 29 30 28 32 33 16 9 4 10
17 16 14 12 11 12 13 13 21 28 30 34 28 21 17 12 9 17 24 21 29 29 32 30 32 26 17 14 21 22 18 27 21 24 25 14 23 24 28 27 25 26 12 5 9
16 16 15 12 9 9 9 15 25 33 31 36 38 32 23 23 19 22 19 19 16 14 25 29 33 26 26 27 26 28 30 25 26 27 26 27 24 22 21 24 24 23 23 10 9
15 15 15 15 10 7 10 13 21 30 36 36 34 34 28 27 23 18 23 10 16 19 15 21 28 32 34 26 10 25 29 29 33 29 30 27 27 27 28 20 30 31 17 15 16
16 15 13 14 12 8 7 13 18 27 33 35 26 27 31 32 32 29 26 21 16 23 25 25 26 30 37 33 24 24 29 29 25 24 26 23 25 26 29 27 20 22 27 28 17
17 13 14 13 11 11 7 7 11 19 24 30 30 25 31 35 43 36 33 18 22 22 32 35 33 39 41 38 29 20 26 28 23 24 23 20 24 22 25 24 22 18 13 13 16
17 16 15 13 11 10 9 6 8 12 9 20 22 26 23 34 43 45 36 26 15 27 31 39 43 40 36 36 30 28 25 23 28 26 27 24 27 18 20 21 21 18 18 11 17
15 17 14 13 14 15 13 12 10 12 15 16 22 24 32 30 37 39 44 35 26 20 22 32 38 37 37 34 40 36 36 29 18 26 30 24 34 29 23 23 30 25 20 30 17
18 18 18 17 17 17 16 14 15 15 15 20 18 26 23 31 37 40 40 43 40 28 13 11 23 30 32 37 41 45 41 33 29 24 23 21 25 41 36 36 34 34 33 34 20
Wind_Direction
234 228 224 218 216 215 207 203 179 153 146 151 151 138 132 134 135 125 111 108 102 88 90 103 69 107 65 69 60 337 337 6 32 41 47 55 46 46 42 43 44 52 56 54 44
236 230 227 224 220 221 218 210 206 184 173 156 164 159 150 149 147 144 117 113 111 105 107 112 168 62 63 75 86 320 350 25 31 35 43 59 53 43 50 47 53 45 62 61 49
242 233 230 227 224 223 226 222 217 211 191 182 179 170 170 171 159 150 127 124 128 117 121 120 86 102 77 90 41 316 3 31 22 40 48 55 45 42 55 59 55 61 55 61 57
247 241 232 229 227 225 225 226 223 220 209 201 197 194 182 180 166 171 145 136 138 129 134 111 100 89 102 130 273 322 16 30 35 36 39 38 40 39 33 38 47 62 68 61 54
251 249 242 235 231 230 229 227 226 224 220 212 207 208 197 196 199 179 170 147 151 151 153 146 104 69 123 88 289 58 31 44 53 53 47 43 32 48 42 47 47 46 54 50 53
252 246 245 244 237 233 232 233 230 227 222 220 214 213 207 203 212 202 180 169 167 165 156 168 131 100 341 12 293 331 279 71 76 54 20 37 17 42 49 58 54 42 42 47 49
251 249 248 245 244 239 235 233 234 232 228 223 220 216 211 197 206 204 202 181 177 167 154 172 155 144 146 150 281 284 342 30 29 54 29 32 15 39 40 46 46 56 51 53 36
249 249 249 247 246 243 240 237 236 237 235 229 225 220 215 204 215 214 207 194 180 180 159 171 150 152 140 121 267 254 249 229 162 99 72 11 17 27 37 29 27 34 42 47 43
253 249 246 247 245 244 244 243 239 238 237 237 231 225 219 209 215 216 218 213 196 187 174 174 171 179 173 151 245 276 16 285 227 52 34 34 33 21 30 39 19 9 30 32 28
258 255 250 247 245 245 243 243 241 240 240 239 236 231 224 207 214 212 214 219 217 211 190 187 181 173 163 156 218 275 24 15 14 17 19 348 264 39 7 1 46 17 6 30 19
259 255 255 252 247 244 244 243 243 241 241 243 242 241 233 221 225 215 217 220 219 218 216 204 197 174 187 127 289 288 73 20 318 90 278 328 333 12 338 356 3 23 348 8 10
255 259 258 254 255 248 245 243 244 243 239 239 241 238 241 233 221 221 220 220 225 224 217 226 203 183 161 125 272 301 340 357 302 350 263 306 320 318 321 320 326 354 343 8 16
253 252 254 257 257 257 253 245 242 244 240 243 242 236 245 238 225 220 221 219 221 224 228 232 219 199 198 161 200 279 298 314 329 303 271 304 281 297 318 307 303 326 357 7 26
263 256 253 253 254 256 259 258 246 242 243 236 243 242 236 243 230 230 229 222 222 223 229 233 224 217 172 182 214 244 307 244 277 297 290 262 294 300 293 302 344 263 317 1 28
268 265 259 255 254 255 254 255 262 250 244 238 235 242 240 241 233 231 229 226 226 227 230 233 225 231 208 195 205 260 253 228 282 283 300 309 270 300 312 319 313 262 258 273 30
280 273 268 263 255 252 253 252 253 262 244 250 238 239 239 238 232 228 235 226 223 225 230 228 226 224 209 194 213 243 250 240 239 260 281 291 294 289 297 315 283 264 238 223 65
293 283 272 265 262 255 249 249 248 250 208 306 279 255 238 236 233 233 232 233 229 228 227 231 230 224 214 208 211 224 249 256 238 254 286 301 292 296 294 319 344 228 218 187 167
322 306 292 277 263 255 248 244 239 184 147 161 248 273 242 236 237 239 241 232 231 230 230 233 235 232 225 219 241 228 246 258 254 254 272 297 295 305 303 316 321 311 341 194 72
353 342 321 296 275 260 251 239 196 176 192 200 219 238 247 250 240 233 230 241 234 231 234 233 236 231 211 232 237 239 229 241 255 245 269 275 285 297 306 307 313 324 297 289 349
351 351 344 318 289 273 255 221 202 211 204 203 215 214 194 180 240 265 251 251 241 238 231 229 238 212 189 241 267 277 260 232 223 254 265 289 295 301 307 308 309 331 315 332 359
335 345 350 343 310 269 254 219 203 213 217 212 217 221 206 178 189 223 257 249 254 264 234 225 227 211 190 209 253 263 273 237 219 221 250 262 263 290 304 295 312 334 351 339 317
328 327 339 347 345 297 236 215 213 225 224 235 234 232 220 206 190 183 206 198 226 247 264 232 220 216 200 190 219 256 262 275 229 225 230 251 256 277 306 309 320 331 313 321 312
327 323 326 335 344 342 276 224 213 237 238 251 255 233 222 222 198 181 185 195 202 221 225 212 230 223 201 191 184 215 254 262 245 235 234 253 257 284 293 300 315 336 315 294 294
315 326 316 320 326 335 345 302 256 245 261 255 252 249 229 210 214 196 184 190 191 206 220 212 216 218 221 198 197 211 251 262 282 272 229 245 276 274 289 294 308 307 294 302 317
315 319 313 309 306 309 317 315 293 268 249 278 243 238 243 226 219 220 191 201 179 206 214 221 220 220 227 210 198 211 221 255 268 282 240 212 244 259 276 282 289 253 244 294 310
320 318 315 308 304 305 302 315 297 267 290 288 252 253 234 229 221 229 227 208 190 210 217 229 232 230 230 205 200 208 211 217 236 265 278 243 222 245 252 268 265 270 260 281 298
314 303 303 298 291 291 299 296 297 290 283 281 276 247 244 231 223 217 217 214 206 212 203 186 217 228 228 226 210 210 206 210 216 221 242 260 241 230 242 249 259 271 285 283 290
Height
5896 5897 5899 5901 5903 5904 5906 5907 5910 5911 5912 5913 5913 5914 5914 5915 5916 5916 5916 5919 5919 5920 5921 5922 5923 5917 5917 5914 5913 5922 5920 5916 5911 5910 5908 5905 5902 5898 5893 5894 5889 5889 5892 5891 5890
5893 5895 5896 5898 5900 5902 5905 5906 5908 5910 5912 5913 5913 5914 5915 5915 5917 5919 5919 5920 5921 5921 5922 5922 5923 5921 5917 5915 5922 5924 5923 5919 5915 5912 5910 5909 5909 5903 5898 5895 5897 5895 5895 5895 5895
5890 5891 5893 5895 5898 5900 5902 5904 5907 5909 5911 5912 5913 5914 5916 5916 5918 5919 5920 5921 5921 5921 5922 5924 5924 5923 5918 5917 5923 5925 5924 5921 5920 5918 5917 5912 5908 5904 5904 5902 5900 5899 5897 5896 5895
5887 5888 5890 5892 5894 5897 5899 5902 5904 5907 5909 5911 5913 5914 5915 5917 5919 5919 5920 5921 5921 5922 5924 5924 5924 5922 5921 5922 5928 5925 5924 5923 5923 5920 5915 5911 5908 5907 5901 5901 5903 5903 5902 5901 5897
5883 5885 5886 5888 5890 5893 5895 5898 5901 5904 5906 5909 5911 5913 5915 5917 5917 5918 5920 5921 5921 5922 5923 5922 5920 5919 5927 5929 5925 5918 5924 5924 5925 5922 5920 5918 5916 5911 5910 5908 5905 5905 5905 5903 5903
5880 5881 5883 5884 5886 5888 5891 5894 5896 5899 5902 5905 5908 5911 5914 5917 5917 5918 5919 5921 5921 5921 5922 5923 5920 5920 5923 5929 5927 5922 5926 5925 5926 5925 5925 5923 5921 5916 5914 5913 5912 5908 5905 5904 5904
5875 5877 5879 5880 5882 5884 5887 5889 5892 5894 5898 5901 5904 5908 5911 5913 5914 5916 5918 5920 5921 5922 5923 5923 5920 5921 5925 5927 5927 5926 5928 5929 5929 5926 5926 5925 5925 5919 5918 5917 5915 5913 5910 5906 5905
5869 5871 5874 5876 5878 5880 5882 5885 5887 5889 5893 5896 5899 5904 5907 5912 5913 5914 5916 5918 5920 5922 5922 5923 5922 5923 5927 5926 5927 5929 5929 5929 5926 5925 5922 5930 5930 5925 5922 5921 5920 5917 5913 5908 5906
5864 5866 5868 5870 5873 5875 5877 5879 5882 5885 5887 5890 5895 5899 5903 5908 5911 5911 5914 5916 5918 5920 5921 5922 5923 5924 5924 5924 5923 5927 5927 5927 5930 5927 5926 5928 5929 5927 5926 5922 5920 5918 5913 5909 5907
5860 5860 5862 5864 5867 5869 5871 5873 5876 5879 5882 5885 5889 5895 5898 5902 5902 5907 5910 5912 5915 5917 5919 5920 5921 5924 5925 5923 5923 5928 5929 5926 5926 5924 5924 5925 5924 5926 5927 5924 5918 5917 5916 5912 5909
5856 5856 5857 5858 5860 5863 5866 5869 5872 5874 5878 5882 5884 5889 5892 5896 5901 5905 5906 5908 5911 5913 5918 5918 5919 5921 5921 5919 5924 5928 5924 5929 5923 5922 5917 5925 5925 5927 5926 5923 5919 5917 5918 5915 5913
5851 5852 5853 5854 5854 5856 5858 5862 5865 5868 5871 5874 5877 5883 5884 5891 5897 5899 5902 5905 5907 5911 5912 5914 5918 5920 5919 5919 5923 5924 5928 5928 5928 5927 5923 5928 5928 5926 5926 5917 5917 5916 5917 5916 5912
5846 5847 5848 5849 5850 5851 5852 5854 5857 5860 5865 5869 5872 5878 5879 5885 5890 5892 5895 5899 5901 5905 5907 5909 5917 5916 5917 5919 5923 5922 5923 5927 5922 5929 5933 5925 5923 5920 5923 5920 5918 5913 5917 5915 5911
5841 5842 5843 5844 5847 5847 5848 5848 5850 5853 5858 5866 5867 5871 5873 5875 5883 5887 5891 5895 5896 5900 5903 5905 5911 5911 5913 5916 5923 5924 5925 5930 5930 5925 5926 5929 5918 5916 5919 5918 5914 5913 5913 5914 5910
5837 5837 5838 5839 5841 5842 5844 5844 5845 5847 5852 5855 5860 5864 5867 5871 5879 5880 5884 5887 5891 5895 5898 5901 5905 5906 5908 5913 5919 5922 5924 5925 5923 5925 5923 5924 5923 5917 5913 5911 5913 5911 5909 5913 5912
5834 5834 5834 5834 5835 5837 5838 5840 5842 5845 5847 5848 5856 5857 5860 5864 5870 5873 5874 5881 5886 5888 5891 5894 5898 5901 5904 5908 5913 5918 5917 5918 5919 5921 5921 5920 5920 5920 5918 5918 5914 5910 5909 5910 5906
5830 5830 5830 5830 5831 5832 5833 5836 5840 5842 5845 5848 5848 5848 5854 5859 5863 5864 5867 5873 5877 5881 5885 5889 5891 5895 5899 5903 5907 5911 5912 5912 5913 5915 5916 5917 5915 5916 5915 5913 5912 5909 5905 5905 5908
5828 5826 5825 5825 5825 5826 5828 5832 5835 5839 5843 5843 5847 5843 5849 5854 5858 5859 5861 5865 5870 5875 5880 5883 5886 5892 5895 5898 5903 5905 5908 5908 5908 5910 5913 5912 5909 5910 5908 5910 5909 5907 5903 5900 5900
5826 5823 5822 5821 5821 5821 5823 5827 5831 5832 5831 5836 5839 5843 5846 5849 5852 5853 5856 5858 5864 5869 5871 5875 5879 5887 5890 5895 5897 5901 5899 5903 5904 5907 5909 5910 5906 5905 5906 5907 5908 5899 5902 5903 5900
5825 5823 5820 5818 5817 5817 5819 5823 5825 5826 5826 5829 5832 5836 5838 5843 5847 5851 5850 5854 5858 5862 5865 5870 5872 5878 5883 5892 5893 5893 5898 5898 5899 5901 5903 5905 5902 5905 5903 5902 5900 5902 5903 5897 5898
5824 5822 5819 5816 5814 5814 5816 5817 5818 5820 5821 5824 5825 5830 5834 5835 5838 5841 5848 5851 5853 5856 5859 5864 5867 5873 5876 5879 5886 5889 5889 5892 5894 5895 5896 5898 5901 5900 5901 5900 5901 5902 5897 5894 5898
5822 5821 5818 5816 5814 5811 5811 5813 5817 5816 5816 5816 5821 5826 5831 5832 5833 5836 5842 5848 5850 5853 5855 5856 5860 5864 5868 5875 5879 5884 5885 5888 5889 5891 5891 5894 5895 5894 5894 5897 5898 5894 5893 5899 5898
5820 5818 5816 5814 5812 5810 5809 5809 5811 5812 5811 5810 5816 5817 5821 5829 5829 5830 5835 5841 5841 5848 5850 5852 5853 5857 5863 5869 5872 5877 5881 5882 5884 5885 5886 5890 5891 5892 5892 5894 5895 5893 5891 5890 5896
5817 5817 5814 5812 5810 5808 5805 5805 5805 5806 5806 5806 5807 5811 5813 5817 5821 5825 5830 5831 5831 5839 5842 5844 5846 5848 5853 5862 5869 5872 5876 5878 5879 5878 5881 5885 5886 5888 5889 5890 5889 5889 5891 5891 5891
5814 5812 5810 5809 5808 5806 5805 5803 5803 5802 5800 5798 5798 5802 5807 5811 5814 5818 5824 5819 5824 5827 5833 5837 5840 5844 5848 5853 5859 5863 5868 5871 5872 5874 5877 5880 5879 5880 5882 5885 5886 5887 5888 5886 5887
5811 5809 5807 5805 5804 5802 5801 5800 5798 5796 5794 5793 5792 5793 5796 5801 5802 5811 5811 5813 5818 5819 5823 5830 5834 5839 5843 5845 5848 5852 5857 5862 5865 5868 5869 5873 5876 5876 5877 5877 5876 5883 5879 5881 5882
5808 5806 5804 5803 5800 5798 5797 5795 5794 5792 5791 5787 5787 5789 5790 5790 5793 5793 5794 5805 5814 5816 5817 5822 5827 5831 5834 5841 5843 5843 5850 5855 5858 5861 5864 5864 5869 5872 5871 5868 5871 5874 5873 5873 5874